Weather History for Key Lake, SK

Change the Weather History Date:

Wednesday, December 12, 2012

  Actual Average Record
Temperature  
Mean Temperature -6 °F -  
Max Temperature 26 °F 5 °F 54 °F (2014)
Min Temperature -38 °F -11 °F -40 °F (2010)
Degree Days  
Heating Degree Days 71    
Moisture  
Dew Point -28 °F    
Average Humidity 70    
Maximum Humidity 95    
Minimum Humidity 44    
Precipitation  
Precipitation 0.00 in - - ()
Sea Level Pressure  
Sea Level Pressure 30.13 in    
Wind  
Wind Speed 5 mph ()    
Max Wind Speed 8 mph    
Max Gust Speed -    
Visibility 7.2 miles    
Events Snow    
Averages and records for this station are not official NWS values.
T = Trace of Precipitation, MM = Missing Value Source: Averaged Metar Reports

Daily Weather History Graph

Daily Weather History Graph

Search for Another Location

Airport:

Trip Planner

Search our weather history database for the weather conditions in past years. The results will help you decide how hot, cold, wet, or windy it might be!

Date:

Astronomy

Dec. 12, 2012 Rise Set
Actual Time 9:34 AM CST 4:18 PM CST
Civil Twilight 8:44 AM CST 5:08 PM CST
Nautical Twilight 7:53 AM CST 5:59 PM CST
Astronomical Twilight 7:06 AM CST 6:46 PM CST
Moon 8:36 AM CST (12/12) 4:02 PM CST (12/12)
Length of Visible Light 8h 23m
Length of Day
6h 44m
Waning Crescent, 1% of the Moon is Illuminated
Dec 12
Waning Crescent
Dec 13
New
Dec 19
First Quarter
Dec 28
Full
Jan 4
Last Quarter

Hourly Weather History & Observations

Time (CST) Temp. Windchill Dew Point Humidity Pressure Visibility Wind Dir Wind Speed Gust Speed Precip Events Conditions
12:00 AM 30 °F - 17 °F 44% 29.46 in - ENE 6.9 mph - -  
12:00 AM -18.4 °F -33.4 °F -23.8 °F 76% 30.08 in 9.0 mi East 5.8 mph - N/A   Overcast
12:14 AM -18.4 °F -33.4 °F -23.8 °F 76% 30.08 in 9.0 mi ENE 5.8 mph - N/A Snow Light Snow
12:34 AM -18.4 °F -35.1 °F -25.6 °F 70% 30.09 in 9.0 mi ENE 6.9 mph - N/A   Mostly Cloudy
12:56 AM -22.0 °F -37.7 °F -29.2 °F 69% 30.10 in 9.0 mi ENE 5.8 mph - N/A Snow Light Snow
1:00 AM -23.8 °F -41.6 °F -29.2 °F 76% 30.09 in 9.0 mi ENE 6.9 mph - N/A Snow Light Snow
2:00 AM -22.0 °F -39.4 °F -29.2 °F 69% 30.10 in 9.0 mi ENE 6.9 mph - N/A Snow Light Snow
2:41 AM -25.6 °F -39.8 °F -32.8 °F 69% 30.12 in 9.0 mi ENE 4.6 mph - N/A   Clear
2:48 AM -25.6 °F -41.9 °F -32.8 °F 69% 30.12 in 9.0 mi ENE 5.8 mph - N/A Snow Light Snow
3:00 AM -25.6 °F -41.9 °F -32.8 °F 69% 30.12 in 9.0 mi ENE 5.8 mph - N/A Snow Light Snow
3:15 AM -25.6 °F -39.8 °F -32.8 °F 69% 30.12 in 5.0 mi East 4.6 mph - N/A Snow Light Snow
3:20 AM -25.6 °F -39.8 °F -32.8 °F 69% 30.12 in 5.0 mi ENE 4.6 mph - N/A Snow Light Snow
3:24 AM -25.6 °F -39.8 °F -32.8 °F 69% 30.13 in 5.0 mi ENE 4.6 mph - N/A Snow Light Snow
3:33 AM -25.6 °F -37.1 °F -32.8 °F 69% 30.13 in 6.0 mi East 3.5 mph - N/A Snow Light Snow
3:46 AM -25.6 °F -39.8 °F -32.8 °F 69% 30.13 in 9.0 mi ENE 4.6 mph - N/A   Partly Cloudy
4:00 AM -27.4 °F -39.2 °F -34.6 °F 69% 30.14 in 9.0 mi ENE 3.5 mph - N/A   Clear
5:00 AM -29.2 °F -46.2 °F -36.4 °F 68% 30.15 in 9.0 mi ENE 5.8 mph - N/A   Clear
5:32 AM -29.2 °F -44.0 °F -38.2 °F 62% 30.15 in 4.0 mi East 4.6 mph - N/A   Haze
5:40 AM -31.0 °F -46.1 °F -40.0 °F 62% 30.15 in 6.0 mi East 4.6 mph - N/A   Haze
6:00 AM 24 °F - 19 °F 74% 29.57 in - NE 3.5 mph - -  
7:00 AM -32.8 °F -48.2 °F -40.0 °F 68% 30.18 in 9.0 mi ENE 4.6 mph - N/A   Clear
8:00 AM -32.8 °F - -41.8 °F 62% 30.19 in 9.0 mi East 2.3 mph - N/A   Clear
9:00 AM -38.2 °F - -45.4 °F 67% 30.21 in 9.0 mi Calm Calm - N/A   Clear
9:35 AM -36.4 °F - -45.4 °F 61% 30.21 in 5.0 mi East 2.3 mph - N/A   Haze
9:36 AM -36.4 °F - -45.4 °F 61% 30.21 in 2.5 mi East 2.3 mph - N/A   Clear
9:52 AM -34.6 °F -50.3 °F -43.6 °F 61% 30.22 in 3.0 mi ENE 4.6 mph - N/A   Clear
9:54 AM -36.4 °F -52.4 °F -45.4 °F 61% 30.21 in 6.0 mi ENE 4.6 mph - N/A   Haze
10:00 AM -36.4 °F -52.4 °F -45.4 °F 61% 30.21 in 9.0 mi ENE 4.6 mph - N/A   Clear
11:00 AM -31.0 °F -50.3 °F -38.2 °F 68% 30.22 in 9.0 mi ENE 6.9 mph - N/A   Clear
12:00 PM 22 °F - 20 °F 86% 29.73 in - North 6.9 mph - -  
12:00 PM -27.4 °F -41.9 °F -34.6 °F 69% 30.21 in 9.0 mi ENE 4.6 mph - N/A   Clear
1:00 PM -22.0 °F -35.6 °F -29.2 °F 69% 30.20 in 9.0 mi ENE 4.6 mph - N/A   Clear
2:00 PM -18.4 °F -31.4 °F -25.6 °F 70% 30.19 in 9.0 mi NE 4.6 mph - N/A   Clear
3:00 PM -16.6 °F -29.3 °F -22.0 °F 76% 30.19 in 9.0 mi ENE 4.6 mph - N/A   Clear
4:00 PM -20.2 °F -30.9 °F -27.4 °F 69% 30.19 in 9.0 mi East 3.5 mph - N/A   Clear
4:19 PM -20.2 °F -33.5 °F -25.6 °F 76% 30.19 in 4.0 mi ENE 4.6 mph - N/A   Haze
4:21 PM -20.2 °F -35.5 °F -27.4 °F 69% 30.19 in 2.2 mi East 5.8 mph - N/A   Haze
4:34 PM -23.8 °F -37.7 °F -31.0 °F 69% 30.20 in 3.0 mi ENE 4.6 mph - N/A   Haze
4:36 PM -23.8 °F -37.7 °F -31.0 °F 69% 30.20 in 6.0 mi ENE 4.6 mph - N/A   Haze
4:56 PM -23.8 °F -37.7 °F -31.0 °F 69% 30.20 in 5.0 mi ENE 4.6 mph - N/A   Haze
4:58 PM -23.8 °F -39.8 °F -31.0 °F 69% 30.20 in 2.5 mi ENE 5.8 mph - N/A   Haze
5:07 PM -25.6 °F -37.1 °F -31.0 °F 76% 30.21 in 1.8 mi ENE 3.5 mph - N/A Snow Light Snow
5:11 PM -23.8 °F -35.0 °F -31.0 °F 69% 30.20 in 3.0 mi ENE 3.5 mph - N/A Snow Light Snow
5:16 PM -23.8 °F -35.0 °F -29.2 °F 76% 30.20 in 6.0 mi ENE 3.5 mph - N/A Snow Light Snow
5:19 PM -22.0 °F -33.0 °F -27.4 °F 76% 30.21 in 9.0 mi ENE 3.5 mph - N/A   Clear
6:00 PM 17 °F - 16 °F 95% 29.81 in - SE 2.3 mph - -  
6:00 PM -29.2 °F -46.2 °F -36.4 °F 68% 30.22 in 9.0 mi East 5.8 mph - N/A   Clear
7:00 PM -18.4 °F -31.4 °F -25.6 °F 70% 30.20 in 9.0 mi East 4.6 mph - N/A   Mostly Cloudy
7:33 PM -18.4 °F -33.4 °F -23.8 °F 76% 30.19 in 9.0 mi East 5.8 mph - N/A Snow Light Snow
8:00 PM -16.6 °F -31.3 °F -22.0 °F 76% 30.19 in 9.0 mi East 5.8 mph - N/A Snow Light Snow
9:00 PM -13.0 °F -27.0 °F -20.2 °F 70% 30.18 in 9.0 mi ESE 5.8 mph - N/A Snow Light Snow
10:00 PM -11.2 °F -24.8 °F -16.6 °F 77% 30.16 in 9.0 mi SE 5.8 mph - N/A Snow Light Snow
11:00 PM -11.2 °F -27.8 °F -16.6 °F 77% 30.14 in 9.0 mi SE 8.1 mph - N/A Snow Light Snow
11:38 PM -9.4 °F -24.3 °F -14.8 °F 77% 30.13 in 9.0 mi SSE 6.9 mph - N/A   Overcast
11:43 PM -9.4 °F -25.6 °F -14.8 °F 77% 30.13 in 9.0 mi SSE 8.1 mph - N/A Snow Light Snow